Regional Weather Roundup
Issued by NWS

Home | Current Version | Previous Version | Text Only | Print | Product List | Glossary On
Versions: 1 2 3 4 5 6 7 8 9 10 11 12 13 14 15 16 17 18 19 20 21 22 23 24 25 26 27 28 29 30 31 32 33 34 35 36 37 38 39 40 41 42 43 44 45 46 47 48 49 50
000
ASUS43 KDMX 050307
RWRIA

WEATHER ROUNDUP FOR IOWA
NATIONAL WEATHER SERVICE DES MOINES IA
1000 PM CDT TUE AUG 04 2015

NOTE: "FAIR" INDICATES FEW OR NO CLOUDS BELOW 12,000 FEET WITH NO
SIGNIFICANT WEATHER AND/OR OBSTRUCTIONS TO VISIBILITY.

* - THESE STATIONS ARE NOT NWS STATIONS...THUS NOT UNDER NWS
QUALITY CONTROL.  THEY ALSO DO NOT REPORT WEATHER SUCH
AS PRECIPITATION OR FOG.

IAZ001>003-012>014-020>022-031>034-043>046-050400-
   NORTHWEST IOWA

CITY           SKY/WX    TMP DP  RH WIND       PRES   REMARKS
CARROLL *      MOCLDY    68  64  88 SE7       30.00S
CHEROKEE *     MOCLDY    68  64  88 E7        30.00S
DENISON *      CLOUDY    70  64  83 E6        29.98R
LE MARS *      CLOUDY    72  64  78 E6G13     30.01R
ORANGE CITY *  CLEAR     68  63  83 E6        30.01R
SHELDON *      CLEAR     66  61  82 E7        30.00S
SIOUX CITY     CLOUDY    71  64  78 SE7       29.98R
SPENCER        MOCLDY    66  59  78 E7        30.03R
STORM LAKE *   CLEAR     66  64  94 E6        30.02S
$$

IAZ055>058-069>071-079>083-090>094-050400-
   SOUTHWEST IOWA

CITY           SKY/WX    TMP DP  RH WIND       PRES   REMARKS
ATLANTIC *     CLOUDY    72  64  78 CALM      30.00R
AUDUBON *      CLOUDY    70  64  83 CALM      30.02S
CLARINDA *     CLEAR     70  70 100 NE3       29.99S
COUNCIL BLFS * CLOUDY    72  66  83 S6G13     29.99R
CRESTON *      MOCLDY    70  64  83 E6        30.03R
HARLAN  *      CLOUDY    70  68  94 CALM      30.03R
LAMONI         MOCLDY    72  68  87 E5        30.00F
RED OAK *      CLEAR     70  68  94 CALM      29.98S
SHENANDOAH *   CLEAR     70  70 100 CALM      29.97S
$$

IAZ047>049-059>061-072>074-084-050400-
   CENTRAL IOWA

CITY           SKY/WX    TMP DP  RH WIND       PRES   REMARKS
AMES           MOCLDY    67  65  93 CALM      30.01S
ANKENY *       PTCLDY    70  66  88 CALM      30.02R
CHARITON *     CLOUDY    70  66  88 E6        30.02S
DES MOINES     CLOUDY    74  61  63 E7        30.01R
GRINNELL*      PTCLDY    66  64  94 CALM      30.04S
KNOXVILLE *    PTCLDY    70  64  83 SE3       30.01R
MARSHALLTOWN   MOCLDY    68  61  78 E7        30.03R
PELLA *        PTCLDY    70  66  88 SE3       30.03S
PERRY *          N/A     68  64  88 E6        30.01S
$$

IAZ004>006-015-016-023>025-035-036-050400-
   NORTH CENTRAL IOWA

CITY           SKY/WX    TMP DP  RH WIND       PRES   REMARKS
ALGONA *       CLEAR     66  59  77 E5        30.04S
CLARION *      CLEAR     63  59  88 E9        30.03S
ESTHERVILLE    PTCLDY    60  57  89 SE7       30.03S
FORT DODGE *   PTCLDY    64  59  82 E6        30.03S
MASON CITY     CLEAR     59  57  93 S3        30.06S
FOREST CITY *  CLEAR     59  59 100 CALM      30.04S
IOWA FALLS *   MOCLDY    66  61  82 NE3       30.04F
$$

IAZ007>011-017>019-026>030-037>042-050>054-066-050400-
   NORTHEAST IOWA

CITY           SKY/WX    TMP DP  RH WIND       PRES   REMARKS
CEDAR RAPIDS   PTCLDY    70  63  78 CALM      30.03R
CHARLES CITY * CLEAR     61  61 100 CALM      30.06S
CLINTON *      PTCLDY    66  59  77 NE8       30.05S
DECORAH *      PTCLDY    64  57  77 CALM      30.05R
DUBUQUE        PTCLDY    61  55  81 CALM      30.05R
MONTICELLO *   CLEAR     63  61  94 CALM      30.03S
OELWEIN *      CLEAR     61  59  94 CALM      30.05S
WATERLOO       PTCLDY    63  58  83 CALM      30.03R
$$

IAZ064-065-067-068-078-050400-
   EAST CENTRAL IOWA

CITY           SKY/WX    TMP DP  RH WIND       PRES   REMARKS
DAVENPORT      CLEAR     65  62  90 CALM      30.03S
IOWA CITY      PTCLDY    68  64  87 SW3       30.04R
MT. PLEASANT * PTCLDY    70  63  78 NE3       30.03R
MUSCATINE *    CLEAR     70  64  83 CALM      30.03R
QUAD CITIES    CLEAR     69  63  81 CALM      30.02R
$$

IAZ062-063-075>077-085>089-095>099-050400-
   SOUTHEAST IOWA

CITY           SKY/WX    TMP DP  RH WIND       PRES   REMARKS
BURLINGTON     MOCLDY    68  65  90 NE3       30.03R
FAIRFIELD *    PTCLDY    66  63  88 NE5       30.03R
FORT MADISON * CLEAR     66  64  94 CALM      30.03S
KEOKUK *       MOCLDY    70  68  94 NE3       30.01S
OSKALOOSA *    MOCLDY    66  64  94 CALM      30.03R
CENTERVILLE *  MOCLDY    68  66  94 E3        30.03F
OTTUMWA        PTCLDY    66  64  93 E5        30.01R
WASHINGTON *   CLEAR     64  64 100 CALM      30.04S
$$

ABBREVIATIONS USED IN REMARKS
   TC - TEMPERATURES IN CELSIUS
  WCI - WIND CHILL INDEX
   HX - HEAT INDEX
  VSB - VISIBILITY
$$




USA.gov is the U.S. government's official web portal to all federal, state and local government web resources and services.